CAPE
505 565 0 0 21 10 38 36 16 123 213 61 46 57 52 33 12 0 0 0 0 1 0 86 15 11 203 556 526 1358 1725 1735 1672 1954 2022 1804 1719 1939 1862 1817 1753 1735 1958 1610 1814 1472 1577 1736 1767
0 5 2 3 0 16 41 68 108 211 71 2 3 9 24 4 0 0 0 0 0 12 11 155 448 268 439 1089 1393 1387 1617 1567 1793 1989 1936 1864 1881 1679 1764 1854 1827 2029 2093 2129 2100 1978 1994 2136 2109
0 90 22 14 29 6 50 65 135 139 34 0 0 0 0 2 0 0 0 0 0 33 83 376 691 811 510 1514 1513 1295 1507 1808 1862 1860 1862 1896 1814 1747 1817 2040 2005 2059 2101 2186 2148 2149 2165 1942 1685
519 2 86 56 141 37 46 73 140 1 0 0 0 0 0 0 0 0 0 0 8 128 444 1175 1431 1189 1463 247 62 154 1394 1884 1863 1782 1712 1484 1557 1875 1826 1945 2177 1979 1626 1714 1658 1685 1811 1712 1646
132 2 4 31 59 18 72 115 75 35 3 0 0 0 0 0 0 0 0 0 69 204 789 1338 1658 1685 1683 1828 1837 1750 1560 1759 1794 1657 1519 1679 1665 1817 1936 1911 1715 1798 1882 2132 1529 1437 1450 1487 1550
14 61 65 66 42 58 71 101 82 0 0 0 0 0 1 0 0 0 0 59 148 453 1062 1264 1671 1707 1685 1817 1783 1749 1784 1500 1555 1672 1346 1682 1921 1865 1864 2028 1395 1335 1325 1373 1201 998 935 913 789
22 49 88 74 133 75 66 87 0 0 0 0 0 73 1 0 0 46 221 221 708 1123 1176 1055 1164 1518 1931 1914 1896 1891 1673 1886 1802 1686 1715 1618 2026 1980 1838 1978 1838 1742 1607 1600 1604 1494 1418 1270 1109
60 63 36 101 167 190 65 54 15 22 50 20 75 38 0 12 106 290 510 581 837 1013 1043 967 903 986 1134 1316 1845 2019 1944 1666 1646 1868 1678 1693 1813 1857 1813 1983 1921 1937 1941 1958 1916 2037 2140 2334 2121
17 21 12 45 127 221 167 75 111 113 45 137 212 73 0 98 240 323 477 664 730 918 993 882 865 924 949 1155 1630 1837 1925 1639 1980 1710 1837 1335 543 905 1505 1643 1932 1809 1780 1814 1879 1878 2084 2156 2162
1 2 4 43 136 85 322 166 103 116 98 224 197 111 217 278 291 380 525 631 682 692 866 866 937 761 835 1567 1097 1096 1227 1113 1053 860 861 713 380 443 1064 1379 1880 1957 1976 2019 2163 2205 2191 2208 1379
20 10 26 33 115 88 218 346 29 81 116 181 206 335 345 257 234 389 342 464 499 739 726 587 523 267 479 1100 744 741 764 550 419 256 167 332 600 493 731 804 796 977 1362 982 1146 948 1131 1310 1250
42 61 22 149 22 141 227 242 25 40 108 184 234 388 374 213 119 244 363 273 336 635 451 402 341 256 295 504 578 609 510 383 192 0 0 100 136 236 315 206 125 315 315 261 228 332 395 516 531
29 148 137 45 37 134 121 308 157 96 62 202 267 430 381 267 142 144 273 192 151 281 61 74 213 169 235 442 260 255 396 507 410 150 70 0 15 40 211 333 468 673 790 824 766 715 744 626 488
119 322 158 54 65 89 161 58 232 51 72 166 238 378 387 204 143 165 253 159 20 1 0 7 176 100 121 222 226 173 152 233 136 11 132 87 178 452 334 312 375 143 217 78 194 232 491 622 551
463 561 352 189 41 76 57 187 99 37 7 117 84 51 130 64 169 188 276 148 0 0 0 0 193 67 47 110 68 1 43 103 63 0 0 30 487 105 0 0 0 9 1 140 333 693 806 504 5
479 438 114 117 56 181 160 147 211 147 1 40 43 4 21 10 160 210 202 69 0 67 14 23 169 86 0 0 0 0 0 56 75 0 0 344 316 23 0 0 0 0 81 325 345 441 438 362 101
87 12 69 167 242 123 74 83 64 224 167 11 7 37 4 77 170 196 132 30 27 210 23 34 90 199 0 6 66 5 0 134 214 247 197 756 376 2 0 0 0 0 171 257 315 181 136 153 188
144 155 168 182 140 285 36 54 138 145 136 101 31 29 6 42 130 276 173 105 406 362 244 119 381 286 22 182 49 25 123 80 86 407 617 581 361 7 0 0 0 0 12 72 183 59 29 34 9
224 211 38 60 139 246 146 0 96 136 118 169 80 12 10 0 11 325 290 479 548 665 569 507 550 171 240 209 22 12 114 69 240 533 464 525 503 6 0 0 0 0 0 48 61 119 0 0 0
232 76 14 34 77 161 241 132 126 45 22 75 116 34 18 47 8 125 372 483 583 586 393 552 339 214 295 136 91 1 6 216 207 93 34 654 190 58 0 0 0 0 0 0 95 174 0 0 0
73 42 4 4 52 326 164 120 265 237 148 140 107 48 28 29 15 155 373 450 489 463 346 519 308 274 371 233 344 215 345 444 391 350 30 178 565 244 6 0 0 0 0 0 0 0 0 0 0
103 58 38 183 225 93 35 35 57 135 150 71 98 42 121 18 27 157 298 421 388 359 421 460 250 269 578 273 272 286 263 352 322 299 342 167 360 80 0 0 0 0 0 0 0 102 0 0 0
0 74 91 351 135 108 83 72 18 71 150 92 31 17 157 11 11 176 247 320 209 355 389 321 461 390 346 240 194 49 186 188 181 228 463 289 358 123 34 0 0 25 49 63 248 838 6 2 0
56 82 0 0 11 54 19 82 15 73 96 96 45 10 115 69 22 66 171 175 111 391 290 288 568 507 347 200 321 189 179 201 145 145 433 431 360 399 220 93 0 76 226 666 975 877 372 497 25
0 0 0 19 102 29 0 23 70 62 51 61 27 62 73 55 9 22 83 92 87 317 356 299 495 503 419 250 274 301 207 88 103 114 302 418 503 556 683 324 228 285 634 716 663 625 415 499 472
0 0 0 0 0 0 0 0 0 42 30 35 62 4 2 2 0 0 39 96 81 173 354 406 386 419 339 324 263 245 190 12 2 68 256 365 505 587 675 632 513 687 676 540 725 671 504 531 516
0 0 0 1 0 0 0 3 12 0 39 38 69 2 1 34 98 2 0 43 94 90 335 400 345 320 337 330 298 237 124 38 0 69 226 436 326 406 418 654 474 139 577 787 591 552 516 492 327
0 0 1 0 0 0 0 25 3 2 72 64 123 38 0 95 108 160 86 0 102 104 276 332 354 309 355 334 275 325 170 105 85 140 421 570 266 291 206 31 0 0 0 324 520 553 380 481 302
0 0 0 0 0 0 0 0 0 47 51 12 7 1 19 192 356 147 124 147 57 121 294 268 412 359 318 372 294 278 359 266 242 387 437 582 354 233 106 0 0 30 154 522 494 464 398 413 386
0 0 0 0 0 0 0 0 4 162 17 0 0 0 0 108 139 128 71 4 106 117 194 283 429 478 347 329 299 395 399 381 358 453 272 326 286 254 167 0 22 256 337 543 610 494 618 496 615
CIN
-148 -125 -0 -0 -113 -144 -29 -18 -37 -38 -42 -175 -72 -82 -111 -92 -57 -0 -0 -0 -0 -11 -0 -4 -20 -76 -20 -7 -36 -2 -0 -0 -1 -0 -0 -0 -0 -0 -0 -0 -0 -0 -0 -0 -0 -0 -0 -0 -0
-0 -138 -87 -128 -0 -51 -19 -31 -43 -71 -201 -18 -69 -139 -127 -65 -0 -0 -0 -0 -0 -82 -68 -49 -7 -24 -9 -6 -1 -1 -2 -0 -0 -0 -0 -0 -0 -0 -0 -0 -0 -1 -0 -0 -0 -0 -0 -0 -0
-0 -215 -150 -180 -114 -45 -36 -54 -118 -138 -130 -0 -0 -0 -0 -177 -42 -0 -0 -0 -0 -88 -65 -24 -9 -3 -6 -0 -7 -3 -0 -0 -0 -0 -0 -0 -0 -0 -0 -0 -0 -0 -0 -0 -0 -0 -0 -3 -5
-126 -54 -278 -93 -37 -30 -54 -76 -106 -4 -0 -0 -0 -0 -0 -0 -0 -0 -0 -0 -105 -68 -32 -2 -0 -1 -0 -8 -69 -64 -1 -0 -0 -0 -0 -2 -1 -0 -0 -0 -0 -0 -0 -0 -0 -1 -5 -12 -14
-292 -342 -206 -85 -48 -65 -79 -82 -98 -121 -139 -0 -0 -0 -0 -0 -0 -0 -0 -0 -97 -57 -24 -1 -0 -1 -0 -2 -0 -0 -0 -0 -0 -1 -2 -0 -1 -0 -0 -0 -0 -0 -0 -0 -1 -17 -22 -23 -22
-191 -258 -102 -43 -35 -62 -53 -78 -117 -0 -0 -0 -0 -0 -33 -0 -0 -0 -0 -130 -94 -50 -12 -8 -0 -0 -0 -0 -0 -0 -0 -0 -0 -2 -4 -1 -0 -1 -1 -0 -0 -5 -6 -11 -23 -34 -41 -45 -44
-221 -232 -51 -92 -27 -21 -71 -70 -0 -0 -0 -0 -0 -147 -17 -0 -0 -118 -97 -89 -31 -12 -15 -23 -8 -1 -0 -0 -0 -0 -0 -0 -0 -0 -1 -0 -0 -0 -0 -0 -0 -0 -1 -5 -15 -22 -32 -42 -41
-179 -161 -85 -81 -29 -6 -39 -84 -99 -121 -107 -148 -116 -162 -0 -262 -123 -107 -54 -44 -28 -24 -31 -42 -31 -17 -9 -5 -0 -0 -0 -0 -0 -0 -0 -1 -0 -0 -1 -2 -0 -0 -0 -3 -12 -17 -25 -27 -39
-182 -119 -58 -46 -18 -5 -19 -40 -70 -78 -120 -85 -70 -126 -0 -158 -130 -99 -51 -20 -15 -12 -35 -46 -41 -35 -31 -26 -4 -0 -0 -0 -1 -2 -0 -30 -77 -51 -25 -19 -9 -8 -15 -24 -29 -38 -36 -41 -48
-119 -56 -52 -74 -50 -49 -43 -34 -86 -94 -93 -78 -80 -117 -143 -130 -125 -88 -69 -57 -24 -23 -32 -56 -53 -55 -42 -6 -28 -18 -12 -27 -35 -47 -55 -77 -133 -145 -56 -40 -23 -24 -26 -32 -42 -49 -45 -58 -115
-135 -93 -112 -48 -49 -84 -88 -23 -90 -67 -95 -106 -145 -126 -128 -135 -123 -101 -113 -97 -84 -53 -58 -89 -96 -151 -92 -31 -69 -78 -75 -85 -102 -124 -158 -133 -128 -173 -146 -160 -159 -148 -103 -151 -149 -157 -151 -139 -136
-89 -85 -89 -20 -97 -70 -43 -38 -52 -48 -82 -105 -136 -159 -147 -150 -191 -148 -118 -148 -131 -84 -102 -125 -148 -182 -154 -91 -92 -86 -95 -122 -161 -0 -0 -229 -241 -230 -226 -277 -317 -247 -269 -283 -313 -304 -295 -272 -250
-147 -76 -28 -83 -93 -59 -56 -60 -24 -32 -101 -78 -105 -102 -136 -129 -168 -160 -135 -145 -173 -102 -215 -225 -196 -189 -154 -115 -164 -148 -126 -121 -149 -194 -252 -0 -246 -318 -259 -228 -228 -202 -220 -247 -270 -281 -289 -281 -279
-79 -53 -53 -76 -104 -50 -67 -112 -16 -40 -79 -75 -101 -97 -105 -128 -162 -148 -177 -196 -255 -43 -0 -290 -190 -219 -245 -168 -160 -188 -197 -164 -210 -177 -247 -266 -264 -201 -230 -268 -277 -382 -423 -520 -456 -442 -311 -249 -237
-51 -21 -35 -78 -110 -64 -62 -31 -36 -80 -50 -74 -83 -100 -119 -135 -132 -168 -187 -238 -0 -0 -0 -0 -205 -258 -242 -212 -249 -9 -258 -178 -239 -0 -0 -351 -211 -318 -0 -0 -0 -514 -86 -500 -448 -344 -286 -265 -29
-34 -19 -33 -67 -142 -65 -55 -15 -60 -49 -4 -57 -91 -76 -135 -187 -121 -148 -196 -272 -0 -235 -336 -292 -173 -246 -0 -0 -0 -0 -0 -226 -256 -0 -0 -171 -216 -314 -0 -0 -0 -0 -480 -381 -398 -405 -360 -364 -363
-177 -139 -81 -31 -70 -54 -67 -33 -167 -92 -39 -49 -83 -82 -81 -154 -165 -167 -230 -280 -298 -235 -336 -281 -247 -220 -0 -128 -225 -54 -0 -212 -197 -184 -186 -135 -199 -120 -0 -0 -0 -0 -430 -413 -400 -480 -484 -453 -357
-94 -123 -74 -64 -103 -42 -95 -89 -129 -86 -112 -56 -48 -74 -68 -169 -166 -187 -249 -258 -183 -216 -272 -246 -199 -202 -253 -212 -250 -231 -222 -256 -247 -147 -143 -170 -197 -99 -0 -0 -0 -0 -127 -464 -433 -432 -581 -586 -123
-74 -95 -136 -139 -116 -59 -72 -0 -86 -83 -52 -76 -65 -81 -138 -0 -176 -129 -173 -151 -126 -149 -197 -201 -191 -231 -186 -193 -277 -247 -142 -221 -159 -152 -171 -170 -164 -94 -0 -0 -0 -0 -0 -412 -424 -433 -2 -0 -0
-122 -151 -144 -193 -166 -121 -84 -77 -63 -162 -148 -162 -81 -135 -124 -123 -168 -145 -138 -133 -135 -164 -213 -181 -215 -233 -172 -177 -203 -24 -57 -161 -188 -239 -264 -165 -197 -298 -0 -0 -0 -0 -0 -0 -374 -329 -0 -0 -0
-163 -107 -92 -91 -199 -102 -128 -105 -113 -101 -145 -123 -112 -114 -113 -148 -179 -173 -160 -144 -149 -152 -194 -162 -222 -219 -194 -168 -167 -190 -152 -147 -120 -139 -265 -211 -168 -213 -153 -0 -0 -0 -0 -0 -0 -0 -0 -0 -0
-194 -149 -140 -145 -126 -44 -173 -42 -181 -174 -149 -164 -116 -185 -118 -137 -165 -155 -163 -149 -144 -170 -165 -150 -193 -181 -150 -183 -156 -119 -86 -74 -123 -148 -156 -177 -182 -283 -1 -0 -0 -0 -0 -0 -0 -269 -0 -0 -0
-0 -155 -119 -111 -178 -120 -136 -56 -136 -229 -136 -183 -195 -188 -156 -177 -182 -150 -171 -151 -174 -159 -160 -190 -171 -171 -161 -195 -170 -236 -140 -161 -185 -156 -115 -150 -173 -267 -342 -19 -0 -236 -321 -332 -269 -205 -390 -364 -0
-120 -144 -0 -0 -180 -32 -137 -81 -102 -135 -132 -153 -234 -198 -129 -145 -149 -170 -169 -148 -179 -154 -159 -185 -165 -147 -180 -211 -163 -154 -140 -154 -173 -162 -123 -133 -145 -165 -212 -281 -67 -286 -253 -175 -142 -165 -232 -199 -108
-0 -0 -0 -34 -44 -37 -0 -134 -114 -176 -220 -212 -176 -176 -119 -159 -194 -204 -189 -206 -167 -177 -168 -176 -178 -151 -164 -211 -196 -167 -169 -209 -173 -154 -137 -131 -122 -128 -135 -220 -241 -220 -176 -158 -153 -147 -181 -151 -138
-0 -0 -0 -0 -0 -0 -0 -15 -0 -217 -281 -220 -138 -16 -17 -199 -0 -0 -188 -196 -192 -183 -166 -161 -197 -159 -173 -175 -198 -204 -204 -280 -38 -265 -183 -154 -129 -121 -127 -155 -197 -165 -150 -143 -115 -114 -127 -114 -125
-0 -0 -0 -17 -0 -0 -0 -18 -238 -0 -255 -221 -173 -25 -15 -113 -93 -30 -0 -239 -251 -203 -190 -181 -199 -184 -195 -176 -181 -206 -256 -299 -0 -274 -202 -147 -180 -158 -159 -153 -161 -204 -127 -100 -106 -98 -89 -93 -119
-0 -0 -19 -0 -0 -0 -0 -100 -51 -57 -198 -215 -147 -224 -60 -111 -125 -121 -173 -0 -218 -210 -209 -198 -190 -205 -217 -205 -207 -180 -230 -249 -259 -256 -153 -134 -167 -182 -221 -281 -0 -0 -0 -139 -125 -112 -130 -96 -131
-0 -0 -0 -0 -0 -0 -0 -0 -0 -192 -225 -271 -315 -233 -133 -107 -101 -163 -201 -232 -230 -191 -170 -197 -190 -204 -211 -206 -196 -168 -175 -195 -205 -184 -183 -156 -179 -198 -212 -0 -0 -146 -196 -113 -117 -115 -124 -112 -110
-0 -0 -0 -0 -0 -0 -0 -0 -11 -185 -116 -0 -17 -0 -7 -114 -130 -145 -204 -308 -293 -191 -194 -202 -158 -194 -240 -237 -209 -180 -170 -163 -161 -164 -210 -205 -193 -205 -203 -0 -122 -154 -134 -110 -99 -96 -66 -77 -58
Wind_Speed
6 6 3 3 3 2 2 3 2 3 3 5 5 5 10 8 2 3 1 6 7 4 3 3 7 7 6 6 9 7 10 10 11 11 13 12 10 11 12 12 11 12 13 13 13 13 13 13 13
2 5 2 2 4 3 2 4 4 5 7 6 9 7 7 5 5 6 7 3 8 5 3 4 6 5 4 7 10 8 9 7 9 10 11 11 9 11 10 12 11 11 11 13 12 12 12 11 12
3 2 3 4 2 3 3 3 9 9 4 5 5 7 4 4 6 7 5 10 6 4 4 4 6 8 7 9 12 7 7 8 9 10 9 9 9 9 9 10 10 11 10 11 11 10 10 10 10
1 3 3 4 3 2 3 6 10 9 8 8 10 8 5 5 5 7 11 9 7 5 5 6 8 7 9 12 12 8 3 8 9 9 9 9 8 9 8 9 10 11 9 9 8 8 8 8 7
2 3 5 3 5 4 7 11 5 4 5 10 5 6 5 3 10 13 11 9 6 5 4 6 11 10 10 10 10 9 5 8 8 7 7 7 8 8 7 8 8 8 6 7 7 5 5 5 4
4 2 5 4 5 5 7 8 7 11 10 13 11 8 3 7 14 10 8 7 6 5 4 5 10 10 10 10 10 8 6 6 7 7 7 6 8 8 9 9 8 7 5 4 5 4 4 4 4
5 5 3 5 4 3 5 6 9 11 12 7 9 5 3 5 7 6 6 6 5 5 4 4 3 8 11 10 9 9 8 7 5 6 7 6 7 8 7 6 6 6 5 5 6 6 5 5 4
3 4 5 3 3 8 9 6 14 11 3 12 9 6 6 6 8 9 6 6 5 4 4 5 3 4 4 5 10 9 8 6 6 5 6 5 5 5 4 4 3 4 3 3 4 5 6 6 5
2 5 2 5 1 8 6 7 7 6 15 4 3 6 9 13 12 8 7 5 4 3 3 4 5 5 3 3 4 7 6 6 6 5 6 5 2 3 3 1 2 2 3 3 3 4 5 6 7
4 3 8 3 6 3 8 6 6 8 11 3 9 11 14 14 12 11 10 9 6 5 5 4 4 5 4 3 3 3 3 3 3 2 3 2 0 1 1 3 4 5 6 7 7 7 7 7 3
2 5 5 4 4 7 7 7 5 15 8 14 17 16 16 14 11 11 7 8 9 7 3 4 4 3 2 3 2 1 1 2 1 2 2 2 0 2 3 2 2 2 4 3 5 4 3 4 3
3 4 9 5 2 5 8 3 5 9 4 13 18 20 18 15 11 11 10 10 8 9 5 5 6 4 4 2 3 2 1 2 2 1 4 2 0 2 2 2 3 2 2 4 3 2 4 5 6
3 2 8 9 4 5 8 7 6 8 10 13 15 17 18 13 10 8 7 5 6 7 5 5 4 4 5 5 3 3 3 2 2 3 3 2 3 2 1 2 3 2 3 3 3 4 3 4 5
1 4 6 9 3 6 8 7 10 11 16 17 17 15 14 12 13 8 8 7 7 6 7 7 6 5 5 4 3 3 2 3 3 2 1 2 2 2 3 2 1 3 1 1 1 3 4 3 3
3 8 7 8 9 6 10 6 3 15 19 19 17 14 13 14 16 16 15 11 8 7 9 9 7 6 5 5 4 3 3 3 4 3 1 3 4 5 5 3 2 1 1 2 3 4 1 3 1
2 3 4 7 9 5 5 3 6 3 13 17 18 14 14 19 20 15 14 13 9 5 9 8 8 6 5 3 3 2 3 3 3 4 3 5 5 5 5 4 4 2 2 3 4 3 3 3 3
5 4 1 4 13 0 3 3 5 9 4 9 12 16 13 11 10 13 14 14 10 9 8 7 6 7 6 4 3 2 4 3 3 4 4 6 4 2 2 3 2 2 2 3 1 1 2 2 3
4 4 3 6 7 6 5 6 12 9 10 6 10 10 9 13 13 15 13 12 11 9 7 7 5 5 5 3 2 1 1 1 2 3 4 6 4 5 3 4 3 3 2 1 3 4 4 3 3
9 4 5 2 3 1 4 10 15 10 7 5 9 8 9 12 8 13 14 13 12 8 7 7 7 6 5 2 2 1 3 2 2 4 6 6 5 5 5 3 3 4 3 3 3 2 4 5 4
9 4 1 2 2 2 5 7 6 8 4 5 8 7 8 11 11 10 13 13 13 13 10 8 9 9 7 4 3 3 2 2 1 2 0 4 5 5 5 4 2 2 2 3 2 3 1 2 3
4 7 6 4 5 1 4 5 4 2 4 4 6 5 9 12 13 12 14 15 13 12 10 11 10 10 8 7 3 2 2 1 2 1 2 4 5 4 3 5 5 3 2 2 1 2 3 3 3
5 13 4 6 4 2 1 4 4 3 3 6 5 5 6 12 9 12 14 14 14 13 10 9 8 7 7 9 5 5 4 3 3 3 3 4 5 4 5 4 4 3 2 3 2 2 2 4 3
10 14 13 4 4 3 3 3 6 4 6 6 7 7 8 11 14 15 17 18 15 13 12 8 8 7 6 7 7 5 4 2 1 1 3 3 3 3 4 4 5 3 3 3 4 3 3 3 3
9 9 9 6 3 4 2 4 5 2 4 2 4 12 11 8 15 16 14 13 12 10 10 9 9 7 7 7 7 7 8 5 3 2 3 3 3 4 6 5 5 4 4 4 2 2 3 2 1
9 8 3 3 1 6 3 3 7 4 4 3 8 10 12 4 6 12 15 14 14 12 12 10 10 9 7 7 7 8 7 7 7 6 4 5 3 3 5 5 6 4 3 4 2 2 1 3 3
3 7 7 4 4 3 2 5 6 6 3 4 5 4 3 4 5 7 15 16 15 15 14 12 13 12 9 8 8 7 8 5 5 5 4 4 4 4 3 5 5 5 6 4 3 1 3 3 2
3 5 4 8 3 3 3 6 4 5 7 6 6 9 4 6 7 11 9 11 13 14 16 16 14 14 12 11 6 7 7 7 6 7 4 3 3 3 5 6 6 5 4 4 3 3 3 3 3
6 5 4 4 3 3 4 5 5 3 3 4 3 6 5 5 8 6 6 12 16 18 16 16 15 16 13 10 8 7 8 8 7 6 7 6 4 3 4 4 5 5 5 4 3 2 3 2 2
1 2 7 6 4 6 2 7 5 5 5 4 5 5 5 6 3 4 2 4 14 16 17 18 15 15 12 12 10 9 8 8 6 6 6 6 5 6 6 5 5 5 5 4 4 4 3 4 4
2 4 5 6 4 2 4 8 2 5 8 6 6 8 5 6 4 3 1 4 3 12 13 15 14 14 14 13 12 11 9 7 7 6 7 6 6 5 6 6 6 6 5 4 5 5 3 4 4
Wind_Direction
178 167 124 56 63 82 51 50 87 121 60 346 74 90 109 32 60 171 179 142 116 144 217 176 142 119 93 107 93 89 90 87 94 93 97 103 104 106 106 112 114 113 119 118 113 113 115 113 112
182 168 59 84 79 58 38 98 67 49 127 95 78 82 59 80 62 98 105 133 131 168 205 275 206 207 122 107 91 85 87 97 96 94 98 104 105 99 106 109 115 113 106 110 111 112 110 111 114
123 61 90 88 77 140 128 77 114 139 158 87 108 54 63 59 92 126 131 139 144 156 187 227 187 178 121 111 105 114 124 105 97 95 101 112 107 106 100 99 107 104 104 102 106 108 113 111 105
216 12 69 66 29 35 106 125 130 120 92 61 110 70 66 115 137 145 139 139 150 174 186 177 175 157 144 133 115 96 99 107 104 112 107 103 109 109 99 103 97 98 101 98 105 113 113 103 100
59 51 43 8 37 109 136 140 129 68 78 92 97 94 84 156 111 130 140 148 160 170 188 173 167 157 147 136 137 159 155 104 103 114 104 119 98 96 102 117 109 98 93 106 104 103 100 98 80
67 72 41 20 104 93 140 140 111 97 99 97 98 95 100 131 133 150 150 154 155 155 184 150 156 156 151 145 151 140 121 120 116 115 118 111 101 87 89 99 94 93 109 98 86 72 57 46 42
95 84 35 307 112 138 156 137 114 121 119 105 136 83 78 122 142 137 135 134 134 134 129 133 173 163 159 154 151 138 145 131 128 129 112 112 91 82 89 85 104 97 75 60 53 41 27 19 25
79 82 24 325 305 56 119 112 140 135 104 128 151 150 179 180 139 106 95 110 119 126 136 153 163 131 147 156 161 147 150 133 125 124 121 107 94 101 93 54 44 56 41 37 33 18 357 346 0
310 69 72 286 224 109 86 137 148 119 139 162 173 112 153 144 114 107 117 115 106 125 140 152 166 143 159 138 168 153 140 141 131 119 125 75 51 33 14 340 351 354 339 346 353 345 331 333 342
57 96 202 203 331 37 309 213 196 132 163 107 96 100 132 138 138 148 166 160 156 170 184 180 168 160 161 151 97 127 129 89 87 110 91 108 101 292 250 312 308 322 328 326 325 318 320 337 329
144 162 180 327 278 283 289 179 183 141 182 164 153 149 156 145 153 169 178 167 172 179 182 185 158 127 137 119 119 139 104 114 119 150 144 176 351 313 311 340 353 355 330 338 318 333 327 307 270
141 199 149 186 135 330 356 13 165 156 216 167 159 159 152 162 167 174 179 175 161 178 187 183 180 161 126 114 179 160 146 148 161 220 196 121 216 354 337 342 308 310 301 283 287 294 288 279 274
260 181 188 127 115 318 306 304 169 227 170 154 151 160 165 166 167 181 180 176 150 184 187 196 187 185 153 179 155 166 201 192 228 229 223 144 99 119 279 263 249 266 332 316 309 288 278 278 283
123 194 116 138 258 307 310 294 187 184 159 157 161 174 171 169 172 167 178 171 176 181 184 187 190 203 171 159 187 208 211 216 215 230 203 137 150 159 141 113 95 74 34 352 3 6 5 344 314
168 128 141 177 176 231 212 273 186 153 154 162 164 168 176 187 183 183 185 187 171 201 181 188 181 194 185 192 205 191 235 224 207 185 185 234 173 158 145 151 121 100 358 29 36 33 6 79 66
86 169 152 218 173 235 185 101 8 36 156 169 171 174 186 183 189 190 183 186 183 180 191 182 190 173 181 203 228 207 242 236 180 132 196 216 192 170 151 159 126 167 127 70 38 2 40 17 77
18 261 175 165 204 127 144 144 301 285 14 166 176 174 178 179 176 186 184 187 180 178 190 186 190 168 178 182 216 226 230 244 165 171 192 185 197 183 144 104 107 162 82 55 122 5 69 54 72
163 258 163 206 204 208 165 165 181 195 236 187 182 175 173 169 182 179 180 188 178 174 192 184 189 168 162 119 116 45 311 275 155 180 191 167 177 192 149 122 125 146 141 357 245 98 32 43 19
179 211 199 91 119 81 202 172 189 169 216 176 189 185 165 171 181 175 178 181 172 173 175 191 170 171 148 148 146 83 223 210 172 186 203 164 180 173 150 118 141 165 179 157 261 73 71 25 22
194 175 196 95 145 143 180 227 237 177 190 217 199 179 175 162 165 172 168 180 183 183 180 185 182 181 174 155 167 166 177 225 119 165 259 178 200 184 165 159 152 189 120 89 71 81 83 63 13
194 175 187 177 152 60 102 315 237 209 150 215 235 200 182 164 174 171 173 183 187 186 187 185 183 184 170 154 131 97 57 58 102 316 182 241 234 184 165 172 183 209 76 102 187 109 114 129 14
176 218 156 143 105 169 72 270 293 260 207 197 224 214 205 170 176 176 176 184 196 191 189 184 173 177 185 165 153 157 176 170 209 191 188 224 228 182 177 171 185 189 143 220 212 162 147 101 186
215 154 176 104 92 94 1 76 275 331 262 223 216 212 228 182 169 184 186 186 197 188 188 181 166 172 189 167 167 158 172 200 235 192 215 235 241 215 214 212 210 200 197 216 215 159 142 169 150
100 71 49 54 73 13 244 145 281 230 279 197 191 223 213 201 180 187 190 180 192 186 186 175 175 183 193 173 176 173 174 180 188 227 219 197 224 215 220 217 217 198 225 224 216 149 175 192 220
73 72 26 12 59 213 162 116 238 247 306 249 251 214 206 205 193 173 186 185 187 183 188 182 177 188 200 193 175 181 193 185 197 212 213 179 188 226 233 209 215 215 233 241 221 182 217 208 198
54 136 147 204 196 249 145 227 246 181 127 103 78 96 187 152 237 204 196 193 192 183 184 187 184 191 199 199 197 184 186 191 204 218 203 212 203 216 234 208 211 212 215 214 238 241 246 233 218
174 57 167 102 4 68 251 290 299 151 24 343 121 98 38 303 205 206 217 202 193 190 186 189 188 199 195 202 189 203 186 191 202 209 208 231 220 209 215 206 191 205 222 207 204 221 246 239 227
113 147 70 15 143 261 294 288 241 56 314 321 44 79 69 306 207 174 191 211 201 197 192 190 195 197 193 195 193 202 203 195 196 185 208 220 210 190 198 198 211 231 232 228 226 251 249 220 249
42 56 51 109 121 168 219 259 222 173 212 216 158 128 87 23 194 164 336 308 210 202 195 192 194 195 193 192 195 200 205 207 195 191 200 206 192 194 208 209 239 235 235 235 221 230 235 243 283
120 148 128 121 221 194 149 269 269 209 216 211 256 135 74 102 236 179 314 331 340 204 198 194 194 195 198 194 191 204 207 202 202 207 193 192 199 199 207 211 224 226 236 235 226 232 230 232 245